Weather History for KHZE - September, 2012

Change the Weather History Date:

Saturday, September 1, 2012

  Actual Average (KN60) Record (KN60)
Temperature  
Mean Temperature 80 °F -  
Max Temperature 100 °F 77 °F 99 °F (2012)
Min Temperature 60 °F 50 °F 45 °F (2006)
Cooling Degree Days 15    
Growing Degree Days 30 (Base 50)    
Moisture  
Dew Point 49 °F    
Average Humidity 43    
Maximum Humidity 83    
Minimum Humidity 13    
Precipitation  
Precipitation 0.01 in - - ()
Sea Level Pressure  
Sea Level Pressure 29.82 in    
Wind  
Wind Speed 11 mph (SE)    
Max Wind Speed 28 mph    
Max Gust Speed 34 mph    
Visibility 10 miles    
Events Rain , Thunderstorm    
Averages and records for this station are not official NWS values.
T = Trace of Precipitation, MM = Missing Value Source: NWS Daily Summary

Daily Weather History Graph

Daily Weather History Graph

Search for Another Location

Airport or City:

Trip Planner

Search our weather history database for the weather conditions in past years. The results will help you decide how hot, cold, wet, or windy it might be!

Date:

Astronomy

Sep. 01, 2012 Rise Set
Actual Time 7:06 AM CDT 8:25 PM CDT
Civil Twilight 6:34 AM CDT 8:56 PM CDT
Nautical Twilight 5:55 AM CDT 9:34 PM CDT
Astronomical Twilight 5:14 AM CDT 10:15 PM CDT
Moon 8:31 PM CDT (9/1) 8:24 AM CDT (9/1)
Length of Visible Light 14h 22m
Length of Day
13h 19m
Full, 99% of the Moon is Illuminated
Sep 1
Full
Sep 8
Last Quarter
Sep 15
New
Sep 22
First Quarter
Sep 29
Full

Hourly Weather History & Observations

Time (CDT) Temp. Heat Index Dew Point Humidity Pressure Visibility Wind Dir Wind Speed Gust Speed Precip Events Conditions
12:15 AM 68.0 °F - 46.4 °F 46% 30.01 in 10.0 mi East 11.5 mph 17.3 mph N/A   Mostly Cloudy
12:35 AM 68.0 °F - 46.4 °F 46% 30.01 in 10.0 mi East 11.5 mph 17.3 mph N/A   Mostly Cloudy
12:55 AM 68.0 °F - 46.4 °F 46% 30.02 in 10.0 mi East 5.8 mph - N/A   Mostly Cloudy
1:15 AM 66.2 °F - 46.4 °F 49% 30.03 in 10.0 mi SE 8.1 mph - N/A   Overcast
1:35 AM 64.4 °F - 50.0 °F 59% 30.05 in 5.0 mi East 4.6 mph - 0.01 in Rain , Thunderstorm Light Rain
1:55 AM 62.6 °F - 53.6 °F 72% 30.02 in 10.0 mi NE 9.2 mph - 0.01 in   Overcast
2:15 AM 60.8 °F - 51.8 °F 72% 29.99 in 10.0 mi ENE 11.5 mph 18.4 mph N/A   Partly Cloudy
2:35 AM 60.8 °F - 51.8 °F 72% 30.01 in 10.0 mi ENE 4.6 mph - N/A   Mostly Cloudy
2:55 AM 60.8 °F - 51.8 °F 72% 30.00 in 10.0 mi ENE 8.1 mph - N/A   Partly Cloudy
3:15 AM 60.8 °F - 51.8 °F 72% 29.99 in 10.0 mi ENE 9.2 mph - N/A   Partly Cloudy
3:35 AM 60.8 °F - 51.8 °F 72% 29.98 in 10.0 mi ENE 10.4 mph - N/A   Mostly Cloudy
3:55 AM 60.8 °F - 51.8 °F 72% 29.97 in 10.0 mi ENE 10.4 mph - N/A   Mostly Cloudy
4:15 AM 60.8 °F - 50.0 °F 68% 29.97 in 10.0 mi ENE 8.1 mph - N/A   Overcast
4:35 AM 60.8 °F - 50.0 °F 68% 29.95 in 10.0 mi NE 8.1 mph - N/A   Overcast
4:55 AM 60.8 °F - 50.0 °F 68% 29.94 in 10.0 mi ENE 6.9 mph - N/A   Overcast
5:15 AM 62.6 °F - 50.0 °F 63% 29.93 in 10.0 mi ENE 6.9 mph - N/A   Overcast
5:35 AM 62.6 °F - 48.2 °F 59% 29.92 in 10.0 mi East 8.1 mph - N/A   Overcast
5:55 AM 62.6 °F - 48.2 °F 59% 29.92 in 10.0 mi East 6.9 mph - N/A   Overcast
6:15 AM 62.6 °F - 48.2 °F 59% 29.91 in 10.0 mi East 9.2 mph - N/A   Overcast
6:35 AM 64.4 °F - 46.4 °F 52% 29.90 in 10.0 mi East 10.4 mph - N/A   Overcast
6:55 AM 64.4 °F - 46.4 °F 52% 29.90 in 10.0 mi ESE 10.4 mph 17.3 mph N/A   Mostly Cloudy
7:15 AM 64.4 °F - 46.4 °F 52% 29.90 in 10.0 mi ESE 8.1 mph - N/A   Clear
7:35 AM 64.4 °F - 48.2 °F 56% 29.89 in 10.0 mi ESE 8.1 mph - N/A   Clear
7:55 AM 64.4 °F - 48.2 °F 56% 29.89 in 10.0 mi ESE 9.2 mph - N/A   Clear
8:15 AM 66.2 °F - 48.2 °F 52% 29.89 in 10.0 mi ESE 10.4 mph 16.1 mph N/A   Clear
8:35 AM 66.2 °F - 48.2 °F 52% 29.88 in 10.0 mi SE 11.5 mph 16.1 mph N/A   Clear
8:55 AM 66.2 °F - 48.2 °F 52% 29.88 in 10.0 mi SE 12.7 mph 18.4 mph N/A   Clear
9:15 AM 66.2 °F - 48.2 °F 52% 29.87 in 10.0 mi SE 15.0 mph 19.6 mph N/A   Clear
9:35 AM 68.0 °F - 48.2 °F 49% 29.87 in 10.0 mi SE 11.5 mph 18.4 mph N/A   Clear
9:55 AM 68.0 °F - 50.0 °F 52% 29.86 in 10.0 mi SE 10.4 mph - N/A   Clear
10:15 AM 68.0 °F - 50.0 °F 52% 29.85 in 10.0 mi SSE 8.1 mph - N/A   Clear
10:35 AM 68.0 °F - 50.0 °F 52% 29.85 in 10.0 mi SE 9.2 mph 16.1 mph N/A   Clear
10:55 AM 68.0 °F - 50.0 °F 52% 29.84 in 10.0 mi SE 8.1 mph - N/A   Clear
11:15 AM 71.6 °F - 50.0 °F 46% 29.85 in 10.0 mi SSE 10.4 mph 17.3 mph N/A   Clear
11:35 AM 77.0 °F - 51.8 °F 41% 29.83 in 10.0 mi SSE 18.4 mph 24.2 mph N/A   Clear
11:55 AM 73.4 °F - 50.0 °F 44% 29.83 in 10.0 mi SSE 13.8 mph 19.6 mph N/A   Clear
12:15 PM 78.8 °F - 51.8 °F 39% 29.82 in 10.0 mi SSE 13.8 mph 18.4 mph N/A   Clear
12:35 PM 78.8 °F - 50.0 °F 36% 29.81 in 10.0 mi SSE 6.9 mph - N/A   Clear
12:55 PM 80.6 °F - 50.0 °F 34% 29.80 in 10.0 mi SSE 17.3 mph 21.9 mph N/A   Clear
1:15 PM 82.4 °F - 50.0 °F 32% 29.78 in 10.0 mi SSE 18.4 mph 24.2 mph N/A   Clear
1:35 PM 86.0 °F - 50.0 °F 29% 29.76 in 10.0 mi South 23.0 mph 32.2 mph N/A   Clear
1:55 PM 87.8 °F - 48.2 °F 25% 29.75 in 10.0 mi South 27.6 mph 34.5 mph N/A   Clear
2:15 PM 91.4 °F - 48.2 °F 23% 29.74 in 10.0 mi SSE 26.5 mph 31.1 mph N/A   Clear
2:35 PM 93.2 °F - 46.4 °F 20% 29.74 in 10.0 mi South 26.5 mph 34.5 mph N/A Rain Light Rain
2:55 PM 95.0 °F - 46.4 °F 19% 29.73 in 10.0 mi South 23.0 mph 31.1 mph N/A   Clear
3:15 PM 96.8 °F - 46.4 °F 18% 29.72 in 10.0 mi South 20.7 mph 33.4 mph N/A   Clear
3:35 PM 98.6 °F - 44.6 °F 16% 29.70 in 10.0 mi South 21.9 mph 32.2 mph N/A   Clear
3:55 PM 100.4 °F - 41.0 °F 13% 29.69 in 10.0 mi South 19.6 mph 33.4 mph N/A   Clear
4:15 PM 100.4 °F - 44.6 °F 15% 29.68 in 10.0 mi SSW 19.6 mph 28.8 mph N/A   Clear
4:35 PM 100.4 °F - 44.6 °F 15% 29.68 in 10.0 mi SSW 18.4 mph 27.6 mph N/A   Clear
4:55 PM 100.4 °F - 44.6 °F 15% 29.67 in 10.0 mi South 23.0 mph 31.1 mph N/A   Clear
5:15 PM 100.4 °F - 44.6 °F 15% 29.66 in 10.0 mi South 21.9 mph 29.9 mph N/A   Clear
5:35 PM 100.4 °F - 44.6 °F 15% 29.66 in 10.0 mi SSW 19.6 mph 31.1 mph N/A   Clear
5:55 PM 100.4 °F - 44.6 °F 15% 29.65 in 10.0 mi South 21.9 mph 28.8 mph N/A   Clear
6:15 PM 96.8 °F - 42.8 °F 16% 29.65 in 10.0 mi South 17.3 mph 29.9 mph N/A   Clear
6:35 PM 100.4 °F - 42.8 °F 14% 29.64 in 10.0 mi South 18.4 mph 26.5 mph N/A   Clear
6:55 PM 95.0 °F - 46.4 °F 19% 29.64 in 10.0 mi SSW 10.4 mph - N/A   Clear
7:15 PM 95.0 °F - 48.2 °F 20% 29.65 in 10.0 mi WNW 15.0 mph - N/A   Clear
7:35 PM 95.0 °F - 50.0 °F 22% 29.65 in 10.0 mi WNW 10.4 mph - N/A   Clear
7:55 PM 91.4 °F - 50.0 °F 24% 29.65 in 10.0 mi WNW 9.2 mph - N/A   Clear
8:15 PM 87.8 °F - 50.0 °F 27% 29.66 in 10.0 mi WNW 9.2 mph - N/A   Clear
8:35 PM 84.2 °F - 50.0 °F 30% 29.67 in 10.0 mi WNW 5.8 mph - N/A   Clear
8:55 PM 84.2 °F - 50.0 °F 30% 29.67 in 10.0 mi WNW 3.5 mph - N/A   Partly Cloudy
9:15 PM 84.2 °F - 50.0 °F 30% 29.69 in 10.0 mi WNW 8.1 mph - N/A   Partly Cloudy
9:35 PM 84.2 °F 82.8 °F 53.6 °F 35% 29.71 in 10.0 mi WNW 6.9 mph - N/A Rain Light Rain
9:55 PM 82.4 °F 81.7 °F 55.4 °F 39% 29.72 in 10.0 mi Calm Calm - N/A   Clear
10:15 PM 82.4 °F 81.7 °F 55.4 °F 39% 29.73 in 10.0 mi NNW 6.9 mph - N/A Thunderstorm Clear
10:35 PM 80.6 °F 80.5 °F 55.4 °F 42% 29.73 in 10.0 mi NW 5.8 mph - N/A   Clear
10:55 PM 78.8 °F - 57.2 °F 47% 29.73 in 10.0 mi NNE 5.8 mph - N/A   Partly Cloudy
11:15 PM 78.8 °F - 57.2 °F 47% 29.75 in 10.0 mi Calm Calm - N/A Thunderstorm Scattered Clouds
11:35 PM 73.4 °F - 60.8 °F 65% 29.76 in 10.0 mi SE 6.9 mph - N/A Thunderstorm Thunderstorm
11:55 PM 68.0 °F - 62.6 °F 83% 29.76 in 10.0 mi Calm Calm - N/A Thunderstorm Overcast